Location: Newark
(42.8481°N, 0.4872°E)
Time: 20:56:22
(UTC+00:00)

Transit 2A - Pass Details

Date: 02 November 2020
Orbit: 595 x 963 km, 66.7° (Epoch: 03 December)

Event Time Altitude Azimuth Distance (km) Brightness Sun altitude
Rises 02:10:42 0° 271° (W) 3,646 - -47.6°
Reaches altitude 10° 02:14:38 10° 294° (WNW) 2,687 - -47.0°
Maximum altitude 02:18:00 15° 327° (NNW) 2,335 - -46.4°
Drops below altitude 10° 02:21:19 10° 360° (N) 2,622 - -45.9°
Exits shadow 02:22:55 - 12° (NNE) 2,944 9.3 -45.6°
Sets 02:25:06 0° 24° (NNE) 3,502 9.9 -45.3°
